Theta_e
318 309 308 304 295 290 286 288 290 292 292 297 299 296 296 300 296 290 312 325 339 341 344 346 348 352 352 352 350 350 350 347 345 343 342 341 339 338 338 337 336 336 337 339 340 341 341 342 342
313 310 305 296 289 285 286 288 291 293 300 301 299 299 302 300 309 314 317 334 340 343 345 345 347 351 351 351 350 350 350 348 345 342 342 341 338 338 337 335 334 334 334 335 338 340 338 341 340
309 306 301 291 285 285 286 290 291 295 299 294 299 304 303 304 309 312 318 338 342 343 345 345 346 351 350 350 349 350 349 349 346 344 341 340 338 336 334 332 330 329 330 331 334 336 336 337 338
305 303 295 289 288 289 291 292 293 296 294 298 301 300 306 313 312 316 328 340 340 342 344 343 347 351 350 350 350 349 348 348 347 344 341 340 338 337 335 332 328 327 327 327 329 332 332 333 334
300 296 289 286 287 290 289 293 294 294 292 295 298 298 303 311 315 322 331 338 337 339 342 342 345 347 349 348 349 349 348 347 346 343 341 340 339 338 336 335 331 325 324 324 326 328 328 329 329
297 293 287 284 286 290 292 293 294 291 293 295 299 302 304 306 316 317 332 330 334 339 341 341 338 341 344 346 347 347 348 345 345 343 341 340 339 337 335 335 332 326 322 322 324 324 324 324 323
294 290 286 286 286 289 292 294 292 293 294 295 301 299 300 304 313 315 319 320 328 337 338 339 339 338 337 340 341 343 345 345 344 343 342 340 339 337 336 335 332 329 325 323 322 321 321 321 320
292 291 284 285 287 288 293 293 293 295 293 296 297 295 298 305 312 310 311 312 315 324 328 333 336 337 337 338 334 336 339 340 341 340 337 334 334 334 333 331 332 330 327 324 322 320 320 318 316
291 287 284 286 287 290 292 292 292 293 295 293 295 297 299 310 308 308 308 308 310 313 317 318 330 336 338 339 335 332 334 335 335 334 330 329 333 331 328 329 332 331 328 325 321 318 315 314 313
290 285 287 290 289 291 292 292 294 294 292 292 293 296 301 307 305 310 311 312 309 308 310 313 317 327 332 339 338 337 336 337 337 336 332 333 332 331 329 323 326 327 326 324 321 318 314 308 302
289 287 290 292 293 294 293 292 294 293 290 294 295 296 301 304 305 309 310 310 309 305 308 312 311 314 319 329 335 336 332 335 336 333 332 332 329 328 326 323 321 317 315 313 312 309 308 306 305
291 291 291 294 295 294 292 294 292 292 294 294 296 297 298 303 304 306 306 304 302 304 306 308 311 310 313 317 332 335 335 335 334 332 330 329 327 325 324 322 320 317 315 310 309 309 308 307 307
291 291 293 294 294 293 295 293 293 293 295 294 295 297 297 299 301 300 300 300 300 302 304 306 307 310 311 311 325 330 331 331 333 331 330 329 327 325 323 321 318 315 313 309 308 307 307 307 306
292 293 293 294 294 294 293 292 295 295 293 293 295 295 296 297 299 296 297 298 299 302 302 304 307 310 312 313 327 326 326 326 328 330 329 327 327 324 321 317 315 313 312 308 307 307 306 306 304
293 291 292 292 293 293 295 291 292 295 292 294 294 294 294 295 296 297 298 297 299 301 302 304 308 311 310 315 321 321 320 320 319 320 325 325 324 320 318 315 313 312 311 308 306 304 305 304 301
289 289 286 290 293 292 293 288 293 292 293 293 292 292 293 294 295 295 296 297 299 300 301 305 311 311 315 313 316 316 316 316 315 316 317 319 318 317 315 312 310 309 306 303 301 298 299 299 297
287 283 284 289 293 290 290 288 291 290 291 292 291 291 292 292 293 293 294 296 298 299 301 303 307 309 312 311 309 309 310 311 311 312 313 314 314 314 311 307 305 303 299 298 298 293 297 295 292
283 283 284 285 289 288 288 289 292 291 291 291 291 291 291 292 294 295 293 294 297 298 300 302 307 309 307 304 303 303 303 303 305 307 307 309 308 306 305 303 300 296 294 293 292 293 290 292 290
286 284 284 286 291 288 288 289 292 292 289 290 290 291 292 292 296 293 293 295 296 297 299 300 306 305 304 303 304 303 300 299 298 299 301 300 299 300 300 297 294 292 291 290 292 292 291 287 288
286 285 284 287 289 289 288 288 291 292 291 292 294 293 293 293 291 291 292 294 296 297 301 300 306 303 305 305 300 299 297 294 294 294 294 294 295 295 296 293 289 287 287 288 287 287 283 282 282
286 285 284 286 287 287 285 285 287 290 291 292 293 295 295 295 295 291 291 293 295 296 301 302 306 304 304 298 294 293 294 293 292 291 291 290 291 291 290 287 286 284 285 286 284 284 283 280 280
285 289 288 286 285 281 284 280 285 288 290 290 293 293 294 295 293 291 292 292 295 297 300 301 306 304 301 296 296 297 299 296 293 290 289 288 289 287 285 285 284 283 282 282 281 281 281 281 279
287 290 288 286 283 281 281 280 284 285 287 291 294 295 294 294 292 291 292 294 295 297 300 301 305 303 297 297 297 298 297 290 289 288 287 286 286 285 283 283 282 282 281 281 281 280 280 280 279
291 288 286 284 282 278 283 283 282 285 289 290 295 294 293 291 291 290 290 292 294 297 300 301 303 298 296 296 297 298 290 289 287 286 285 285 284 282 282 282 281 281 281 281 281 280 280 280 280
288 287 280 277 276 278 281 280 287 289 291 292 294 295 290 290 288 288 289 291 293 295 299 302 299 296 295 295 295 292 291 290 289 286 285 283 283 281 280 280 280 280 280 281 281 280 280 280 280
287 286 279 272 274 277 282 279 285 290 291 291 291 291 289 289 288 288 289 291 293 295 300 302 297 295 293 294 292 291 290 291 290 287 286 285 284 281 280 280 280 280 280 280 281 280 280 279 279
285 284 288 282 271 274 280 283 288 290 290 291 291 288 288 290 288 287 289 291 292 295 299 299 296 294 292 291 290 288 289 289 287 286 285 284 283 281 280 280 280 280 280 280 280 280 279 279 279
287 289 282 280 273 269 278 280 283 288 290 291 291 290 290 288 287 287 288 290 291 294 296 296 296 294 291 290 289 289 289 288 287 284 282 282 282 281 280 280 280 280 280 279 279 278 278 278 277
285 284 283 284 280 275 272 282 287 289 290 291 290 291 290 289 287 286 287 289 290 291 289 291 293 291 290 289 289 288 287 286 284 283 282 282 281 280 280 280 280 279 279 279 278 278 277 277 277
285 286 286 281 278 280 280 285 289 289 290 290 290 291 289 288 287 286 287 287 287 288 288 289 290 290 289 288 288 287 286 284 283 283 282 281 280 280 280 280 279 279 278 278 278 277 278 277 276
Wind_Speed
5 3 2 6 6 7 1 3 1 4 1 0 3 4 6 3 4 4 3 5 5 7 6 7 12 12 12 11 12 12 15 15 15 16 15 15 15 15 15 15 15 14 16 16 16 16 18 16 19
3 2 6 3 7 4 5 3 4 4 6 7 5 3 4 1 1 1 2 4 6 7 6 6 11 12 12 12 11 12 14 14 14 15 15 16 16 15 15 14 14 14 16 16 15 16 16 17 18
2 5 5 6 4 4 5 4 4 3 6 0 4 3 4 4 1 3 1 7 9 6 6 7 10 12 12 12 12 12 12 14 15 15 15 15 15 15 14 15 15 14 16 15 15 16 17 17 17
3 5 6 6 3 2 2 5 5 6 3 1 3 5 2 2 1 2 4 7 9 7 7 8 11 13 12 11 12 13 13 13 15 15 15 15 15 14 14 15 14 15 15 16 15 16 17 16 17
5 4 5 4 3 2 3 3 7 5 1 2 2 4 2 1 3 4 6 6 8 6 7 7 10 11 10 11 11 12 12 13 14 15 15 14 13 13 13 14 14 16 16 15 16 17 17 17 17
5 4 5 1 3 3 1 5 6 3 2 2 4 7 4 3 1 2 5 5 3 8 7 7 9 9 10 9 10 11 11 12 14 15 15 14 13 12 13 14 15 16 15 16 17 17 17 17 18
7 5 5 4 3 2 4 8 6 6 5 5 8 6 3 2 1 3 5 5 4 4 6 5 5 7 9 9 9 10 11 12 14 14 14 13 11 11 12 12 14 15 16 17 17 17 18 19 19
6 6 4 4 6 5 4 6 3 6 5 3 2 5 5 5 6 5 6 6 6 5 5 4 4 5 6 6 10 9 9 10 12 12 11 10 9 9 9 10 12 15 16 17 17 18 19 19 19
3 6 3 6 7 5 3 4 1 1 6 1 2 3 2 6 7 5 4 3 4 3 4 4 3 4 5 5 6 9 11 10 11 10 11 9 5 6 7 10 11 15 16 17 18 19 19 18 20
6 5 10 6 5 3 4 3 8 4 3 4 3 3 3 6 6 7 6 7 4 4 3 4 2 2 2 3 6 7 7 8 8 8 8 5 5 4 6 8 12 14 16 18 18 18 17 13 6
3 5 5 4 3 3 4 2 6 7 4 9 11 7 7 6 7 8 7 6 7 3 2 3 2 3 1 1 1 3 2 4 5 7 5 6 5 4 4 4 4 5 8 5 7 7 5 7 6
3 1 4 3 2 3 3 5 4 7 7 0 9 7 7 10 11 10 9 7 6 5 4 1 1 2 2 1 2 2 4 4 5 7 8 6 5 5 4 3 4 5 3 6 5 4 5 7 8
2 2 1 2 1 1 1 4 6 7 6 2 4 8 11 8 7 5 6 5 5 5 4 3 0 2 2 2 2 1 3 2 4 7 8 7 6 6 5 4 4 4 4 5 5 5 5 7 9
1 1 2 1 1 2 3 1 1 5 4 3 6 10 9 10 10 4 6 8 7 5 6 3 3 3 3 3 3 2 3 3 3 3 6 8 6 6 6 6 5 4 5 4 5 5 6 7 9
2 2 5 4 2 3 4 6 11 3 3 6 8 8 8 10 8 12 9 8 8 6 5 5 4 3 4 4 3 3 3 3 3 3 6 8 8 8 8 7 5 5 5 7 6 6 7 9 9
3 5 2 2 4 2 5 9 6 4 8 11 10 9 9 10 11 9 8 7 8 6 7 5 4 4 4 4 3 3 4 4 3 4 4 8 9 10 8 7 5 5 6 5 5 4 7 8 8
6 3 4 8 6 2 4 9 4 1 6 10 9 10 10 9 10 10 10 9 8 8 7 6 6 6 5 4 3 5 5 4 3 4 4 7 9 7 8 7 6 7 6 5 6 4 6 9 8
6 4 4 5 2 2 4 15 10 5 6 11 10 10 11 12 20 10 10 8 8 7 7 6 5 7 7 4 4 4 4 3 3 4 4 5 7 9 5 7 8 7 7 6 5 9 5 7 9
6 4 5 5 4 3 9 10 13 7 7 10 13 12 14 16 17 9 9 9 8 7 8 8 9 8 8 4 3 3 4 2 3 3 6 5 5 10 5 7 8 6 7 7 9 9 13 5 5
3 3 5 5 3 5 7 15 13 13 10 12 17 16 17 13 9 9 11 12 12 10 11 9 10 10 8 5 3 3 4 3 4 3 5 4 8 6 7 9 7 7 7 9 7 7 5 3 2
5 6 5 7 3 4 5 10 8 10 8 10 12 15 13 19 18 12 13 15 11 12 15 13 12 12 9 8 7 5 6 4 3 3 3 3 6 6 8 8 8 6 6 8 5 6 7 5 4
7 9 5 3 2 6 2 10 7 7 10 8 15 14 21 18 10 8 14 14 17 16 12 12 13 12 9 11 9 12 7 7 3 3 4 4 6 7 7 8 7 7 5 7 5 4 5 7 6
6 6 7 3 4 4 5 1 8 1 7 14 17 17 15 12 10 12 16 16 13 12 13 12 13 12 11 11 11 10 9 4 6 6 9 6 6 7 6 7 7 7 5 5 7 7 7 3 4
6 6 5 5 3 7 10 10 6 7 10 6 11 12 9 7 8 8 8 9 11 11 13 13 15 12 12 12 12 12 12 11 10 8 7 5 5 5 5 6 6 6 6 7 6 6 8 6 6
3 6 3 4 1 12 6 3 12 8 7 9 12 12 3 3 6 7 9 10 11 15 16 14 15 13 12 13 12 10 12 14 16 15 10 11 7 4 5 5 6 5 6 7 7 9 8 6 7
10 9 9 9 5 7 3 10 8 9 10 10 8 7 4 4 5 7 8 9 10 13 17 17 17 15 14 13 12 11 12 8 9 10 9 10 9 8 7 6 6 7 7 7 7 7 6 6 6
7 8 4 3 2 3 7 9 9 8 11 11 11 2 4 7 5 7 6 7 8 12 15 15 14 13 14 13 11 10 11 11 10 9 9 6 8 8 9 8 9 7 7 8 8 7 7 6 5
6 7 4 2 3 5 7 8 10 6 10 11 12 8 9 6 6 6 7 8 7 8 10 11 13 14 14 13 12 12 13 12 11 10 10 10 9 12 12 10 9 9 8 7 7 6 6 7 4
4 5 1 4 6 6 3 11 9 10 10 8 5 5 5 7 8 7 7 6 8 7 8 8 11 13 13 12 12 13 13 13 12 12 11 11 11 11 12 12 10 10 10 8 8 7 7 8 7
2 6 8 6 5 5 3 20 3 5 4 5 4 0 1 4 6 7 7 7 7 9 10 12 12 13 12 11 11 12 12 12 13 13 13 12 12 10 11 10 10 9 8 8 9 10 7 9 8
Wind_Direction
326 335 73 44 58 65 290 262 211 139 194 137 78 132 168 85 150 201 272 172 116 135 144 136 134 128 128 124 126 128 121 112 107 95 89 85 80 81 81 78 75 75 79 76 77 76 76 73 83
327 334 45 74 86 79 266 252 206 190 160 138 88 73 52 81 208 165 115 176 159 142 137 135 135 137 137 134 133 132 123 116 110 100 96 90 85 84 83 82 78 75 75 76 78 78 79 82 86
139 37 78 90 109 166 196 211 187 113 140 168 99 58 142 164 254 194 198 144 129 133 133 137 142 143 144 142 140 134 133 125 121 107 102 94 90 86 84 81 77 76 75 77 79 82 81 81 83
71 19 38 81 176 234 209 185 167 134 248 95 117 74 321 293 209 274 139 145 139 148 142 152 154 152 151 148 143 141 139 130 123 112 107 101 94 91 85 79 78 76 77 76 80 80 79 80 81
37 58 58 74 287 264 245 182 150 163 116 117 145 188 174 286 312 331 164 153 154 154 152 159 164 155 152 150 147 145 142 136 129 123 115 109 103 95 90 86 81 79 74 77 78 77 76 76 75
48 94 63 181 269 296 224 163 140 168 136 147 92 141 201 316 218 13 116 116 174 158 157 160 165 158 154 154 151 148 146 141 138 128 125 119 112 107 97 91 88 84 82 77 74 76 75 74 73
113 85 174 166 211 306 195 151 164 176 160 229 155 137 261 273 168 88 104 79 78 125 130 145 164 166 160 155 157 150 147 145 143 137 137 134 125 111 97 89 91 88 82 78 77 75 73 71 68
103 92 115 202 193 236 188 170 160 161 191 109 164 196 216 204 143 105 87 88 77 99 106 122 149 161 163 163 163 154 147 147 144 141 136 126 121 109 95 79 86 84 82 78 77 74 73 73 72
121 68 179 204 153 237 165 147 128 73 115 226 220 173 269 137 125 112 107 82 81 64 99 92 135 170 173 174 168 162 150 147 142 140 143 138 134 128 97 87 79 85 83 80 78 75 73 70 69
81 114 207 188 196 217 195 172 170 152 134 245 274 247 111 141 156 163 172 166 160 153 123 109 31 129 121 209 180 164 164 163 163 159 153 130 119 103 100 96 82 69 74 78 78 80 79 74 69
145 177 188 213 216 197 186 208 178 136 225 217 205 187 168 171 182 184 193 184 181 157 139 128 66 342 5 328 204 144 139 147 143 139 145 135 114 108 103 97 85 76 72 70 70 64 63 71 73
99 108 180 187 197 136 178 126 197 196 219 243 229 175 163 181 195 195 195 192 174 177 179 154 60 318 310 293 274 132 154 160 155 162 147 140 130 122 113 103 96 90 89 90 82 77 76 76 72
101 215 257 326 70 175 160 230 225 243 235 4 129 160 187 197 207 211 204 203 188 197 192 196 246 278 287 273 249 159 145 146 156 160 157 151 145 134 118 102 94 90 98 97 90 87 81 74 72
132 168 298 300 275 264 215 296 111 266 128 139 175 201 202 204 203 192 200 206 199 197 203 200 238 249 230 224 187 137 115 112 107 132 150 136 135 135 120 115 110 100 108 99 99 98 90 84 87
78 333 329 236 211 241 152 298 236 200 134 202 218 219 223 223 201 214 205 203 190 202 192 205 214 220 208 209 136 131 114 103 103 101 123 136 130 132 130 124 125 120 114 106 95 81 89 89 87
55 48 10 287 138 308 133 265 268 179 163 230 225 229 233 234 223 224 212 205 198 184 190 185 186 170 173 138 139 111 103 100 100 101 109 126 127 134 130 129 137 120 101 102 100 89 83 85 86
6 224 210 316 197 122 171 267 243 165 208 253 238 236 240 254 248 230 213 202 192 191 181 185 179 163 143 119 113 97 91 88 107 103 110 126 127 127 130 125 132 111 106 101 116 75 106 108 96
197 211 241 234 211 173 226 263 267 233 207 240 247 240 239 240 242 218 208 201 191 190 186 175 172 144 132 111 104 87 81 72 69 85 89 116 125 116 137 131 117 112 111 112 101 110 72 105 114
137 186 213 238 240 194 231 255 266 260 236 254 245 243 239 231 244 200 194 187 189 192 182 179 166 161 150 148 146 135 131 109 73 74 96 111 81 119 151 112 112 112 123 132 122 114 116 91 115
157 210 255 278 238 187 275 262 250 253 233 224 241 235 235 236 218 199 193 186 191 186 188 180 181 170 171 163 118 122 128 89 94 85 81 90 114 112 130 126 120 122 122 124 134 138 122 102 20
213 196 214 225 326 237 313 272 231 260 251 257 254 243 240 228 231 208 193 197 185 189 190 185 181 176 172 137 113 101 94 88 94 100 97 80 114 107 118 113 126 127 130 144 141 141 132 132 42
246 202 183 183 63 254 167 283 222 238 248 235 251 232 240 235 230 192 193 194 196 196 179 180 182 177 165 156 153 169 166 158 162 135 124 114 126 117 117 124 130 134 131 135 142 146 133 116 139
231 130 159 154 169 342 218 227 260 218 257 254 253 248 239 233 209 205 199 203 197 175 177 176 179 176 167 171 170 172 156 112 126 129 130 131 119 114 123 128 127 126 124 123 129 127 118 112 134
141 83 60 59 106 270 198 193 212 193 209 241 251 260 245 235 216 203 186 171 179 171 174 174 181 174 171 174 174 173 151 148 141 146 144 145 136 116 119 116 119 122 123 121 115 108 104 109 103
147 106 307 327 12 242 340 250 259 276 246 221 250 262 51 159 198 186 175 180 173 179 180 176 175 177 174 178 177 164 161 165 165 160 160 155 151 146 153 131 135 127 120 116 121 115 117 119 121
198 163 170 210 210 275 346 246 248 237 264 247 264 274 127 201 215 207 190 183 184 186 185 179 176 172 174 176 175 168 163 163 166 166 163 166 164 150 143 138 134 130 127 124 115 107 105 112 118
199 206 195 69 80 6 228 282 290 269 283 271 246 151 234 252 243 221 187 184 181 185 188 184 178 169 174 173 164 163 162 160 163 161 162 165 149 143 143 144 143 139 133 132 127 126 121 120 124
164 171 84 347 196 257 271 268 230 259 248 259 270 248 232 235 234 214 195 182 183 185 186 181 180 175 175 170 170 171 166 164 162 159 160 162 154 150 151 151 150 146 141 130 121 117 123 130 119
147 204 117 133 156 182 291 264 217 225 230 231 265 263 249 212 216 210 199 189 174 166 165 172 178 169 175 174 172 168 167 165 161 167 163 164 158 161 158 160 152 150 147 146 134 136 143 135 134
319 222 168 148 215 243 168 266 158 238 301 207 246 247 267 222 207 201 185 172 177 184 179 181 178 174 176 172 171 173 165 160 168 172 167 164 166 167 157 152 153 154 150 146 149 150 152 148 148